| time (UTC) | temp F | wind direction | speed MPH | gust MPH | rain 1hr in | rain 24hr in | rain mn in | humidity % | barometer mb |
| 20260905081810 | 50 | 0 | 0.0 | 0.0 | 0.00 | 0.00 | 0.00 | 71 | 1024.7 |
| 20260905080909 | 50 | 0 | 0.0 | 0.0 | 0.00 | 0.00 | 0.00 | 70 | 1024.7 |
| 20260905080012 | 50 | 0 | 0.0 | 0.0 | 0.00 | 0.00 | 0.00 | 72 | 1024.7 |
| 20260905075414 | 50 | 0 | 0.0 | 0.0 | 0.00 | 0.00 | 0.00 | 70 | 1024.7 |
| 20260905074509 | 50 | 0 | 0.0 | 0.0 | 0.00 | 0.00 | 0.00 | 70 | 1024.7 |
| 20260905073612 | 51 | 0 | 0.0 | 0.0 | 0.00 | 0.00 | 0.00 | 70 | 1024.7 |
| 20260905072730 | 51 | 0 | 0.0 | 0.0 | 0.00 | 0.00 | 0.00 | 71 | 1024.7 |
| 20260905071810 | 51 | 0 | 0.0 | 0.0 | 0.00 | 0.00 | 0.00 | 69 | 1024.7 |
| 20260905070911 | 51 | 0 | 0.0 | 0.0 | 0.00 | 0.00 | 0.00 | 69 | 1024.7 |
| 20260905070026 | 51 | 0 | 0.0 | 0.0 | 0.00 | 0.00 | 0.00 | 70 | 1024.7 |
| 20260905065411 | 52 | 0 | 0.0 | 0.0 | 0.00 | 0.00 | 0.00 | 69 | 1024.7 |
| 20260905064509 | 52 | 0 | 0.0 | 0.0 | 0.00 | 0.00 | 0.00 | 67 | 1024.7 |
| 20260905063631 | 52 | 0 | 0.0 | 0.0 | 0.00 | 0.00 | 0.00 | 68 | 1024.6 |
| 20260905062709 | 52 | 0 | 0.0 | 0.0 | 0.00 | 0.00 | 0.00 | 67 | 1024.6 |
| 20260905061811 | 53 | 0 | 0.0 | 0.0 | 0.00 | 0.00 | 0.00 | 66 | 1024.6 |
| 20260905060909 | 53 | 0 | 0.0 | 0.0 | 0.00 | 0.00 | 0.00 | 66 | 1024.6 |
| 20260905060016 | 54 | 0 | 0.0 | 0.0 | 0.00 | 0.00 | 0.00 | 65 | 1024.6 |
| 20260905055409 | 54 | 0 | 0.0 | 0.0 | 0.00 | 0.00 | 0.00 | 65 | 1024.5 |
| 20260905054509 | 54 | 109 | 0.0 | 2.0 | 0.00 | 0.00 | 0.00 | 64 | 1024.5 |
| 20260905053610 | 54 | 0 | 0.0 | 0.0 | 0.00 | 0.00 | 0.00 | 65 | 1024.5 |
| 20260905052731 | 55 | 0 | 0.0 | 0.0 | 0.00 | 0.00 | 0.00 | 64 | 1024.5 |
| 20260905051810 | 55 | 0 | 0.0 | 0.0 | 0.00 | 0.00 | 0.00 | 61 | 1024.5 |
| 20260905050909 | 56 | 0 | 0.0 | 0.0 | 0.00 | 0.00 | 0.00 | 62 | 1024.5 |
| 20260905050010 | 56 | 0 | 0.0 | 0.0 | 0.00 | 0.00 | 0.00 | 59 | 1024.5 |
| 20260905045409 | 56 | 0 | 0.0 | 0.0 | 0.00 | 0.00 | 0.00 | 63 | 1024.3 |
| 20260905044508 | 57 | 0 | 0.0 | 0.0 | 0.00 | 0.00 | 0.00 | 63 | 1024.3 |
| 20260905043609 | 57 | 0 | 0.0 | 0.0 | 0.00 | 0.00 | 0.00 | 61 | 1024.3 |
| 20260905042709 | 57 | 0 | 0.0 | 0.0 | 0.00 | 0.00 | 0.00 | 63 | 1024.3 |
| 20260905041809 | 58 | 0 | 0.0 | 0.0 | 0.00 | 0.00 | 0.00 | 58 | 1024.3 |
| 20260905040930 | 58 | 109 | 0.0 | 1.0 | 0.00 | 0.00 | 0.00 | 61 | 1024.3 |
| 20260905040010 | 58 | 0 | 0.0 | 0.0 | 0.00 | 0.00 | 0.00 | 63 | 1024.3 |
| 20260905035409 | 59 | 0 | 0.0 | 0.0 | 0.00 | 0.00 | 0.00 | 62 | 1023.6 |
| 20260905034508 | 60 | 0 | 0.0 | 0.0 | 0.00 | 0.00 | 0.00 | 60 | 1023.6 |
| 20260905033614 | 60 | 0 | 0.0 | 0.0 | 0.00 | 0.00 | 0.00 | 60 | 1023.6 |
| 20260905032708 | 60 | 0 | 0.0 | 0.0 | 0.00 | 0.00 | 0.00 | 55 | 1023.6 |
| 20260905031830 | 60 | 0 | 0.0 | 0.0 | 0.00 | 0.00 | 0.00 | 57 | 1023.6 |
| 20260905030908 | 60 | 0 | 0.0 | 0.0 | 0.00 | 0.00 | 0.00 | 57 | 1023.6 |
| 20260905030010 | 61 | 0 | 0.0 | 0.0 | 0.00 | 0.00 | 0.00 | 56 | 1023.6 |
| 20260905025409 | 61 | 0 | 0.0 | 0.0 | 0.00 | 0.00 | 0.00 | 58 | 1023.6 |
| 20260905024508 | 62 | 0 | 0.0 | 0.0 | 0.00 | 0.00 | 0.00 | 57 | 1023.6 |
| 20260905023610 | 62 | 109 | 0.0 | 2.0 | 0.00 | 0.00 | 0.00 | 52 | 1023.6 |
| 20260905022708 | 62 | 0 | 0.0 | 0.0 | 0.00 | 0.00 | 0.00 | 54 | 1023.6 |
| 20260905021809 | 63 | 109 | 0.0 | 2.0 | 0.00 | 0.00 | 0.00 | 52 | 1023.6 |
| 20260905020908 | 63 | 109 | 0.0 | 2.0 | 0.00 | 0.00 | 0.00 | 50 | 1023.6 |
| 20260905020031 | 63 | 0 | 0.0 | 0.0 | 0.00 | 0.00 | 0.00 | 54 | 1023.2 |
| 20260905015430 | 64 | 0 | 0.0 | 0.0 | 0.00 | 0.00 | 0.00 | 51 | 1023.2 |
| 20260905014508 | 64 | 109 | 1.0 | 2.0 | 0.00 | 0.00 | 0.00 | 51 | 1023.2 |
| 20260905013630 | 64 | 109 | 0.0 | 2.0 | 0.00 | 0.00 | 0.00 | 50 | 1023.2 |
| 20260905012707 | 65 | 108 | 0.0 | 1.0 | 0.00 | 0.00 | 0.00 | 50 | 1023.2 |
| 20260905011830 | 65 | 0 | 0.0 | 0.0 | 0.00 | 0.00 | 0.00 | 51 | 1023.2 |
| 20260905010908 | 65 | 0 | 0.0 | 0.0 | 0.00 | 0.00 | 0.00 | 52 | 1023.2 |
| 20260905010009 | 66 | 0 | 0.0 | 0.0 | 0.00 | 0.00 | 0.00 | 51 | 1022.6 |
| 20260905005414 | 66 | 0 | 0.0 | 0.0 | 0.00 | 0.00 | 0.00 | 49 | 1022.6 |
| 20260905004512 | 67 | 0 | 0.0 | 0.0 | 0.00 | 0.00 | 0.00 | 50 | 1022.6 |
| 20260905003614 | 68 | 0 | 0.0 | 0.0 | 0.00 | 0.00 | 0.00 | 44 | 1022.6 |
| 20260905002713 | 69 | 109 | 0.0 | 2.0 | 0.00 | 0.00 | 0.00 | 49 | 1022.6 |
| 20260905001813 | 70 | 106 | 0.0 | 4.0 | 0.00 | 0.00 | 0.00 | 45 | 1022.6 |
| 20260905000912 | 70 | 0 | 0.0 | 0.0 | 0.00 | 0.00 | 0.00 | 41 | 1022.6 |
| 20260905000014 | 72 | 0 | 0.0 | 0.0 | 0.00 | 0.00 | 0.00 | 40 | 1022.6 |
| 20260904235414 | 73 | 111 | 1.0 | 3.0 | 0.00 | 0.00 | 0.00 | 32 | 1022.6 |
| 20260904234533 | 73 | 112 | 1.0 | 3.0 | 0.00 | 0.00 | 0.00 | 32 | 1022.6 |
| 20260904233613 | 73 | 106 | 1.0 | 3.0 | 0.00 | 0.00 | 0.00 | 35 | 1022.6 |
| 20260904232733 | 73 | 103 | 1.0 | 7.0 | 0.00 | 0.00 | 0.00 | 33 | 1022.6 |
| 20260904231834 | 73 | 111 | 0.0 | 4.0 | 0.00 | 0.00 | 0.00 | 34 | 1022.6 |
| 20260904230912 | 74 | 339 | 1.0 | 4.0 | 0.00 | 0.00 | 0.00 | 35 | 1022.6 |
| 20260904230014 | 75 | 252 | 2.0 | 6.0 | 0.00 | 0.00 | 0.00 | 26 | 1022.6 |
| 20260904225415 | 74 | 152 | 1.0 | 4.0 | 0.00 | 0.00 | 0.00 | 28 | 1022.6 |
| 20260904224512 | 75 | 107 | 2.0 | 4.0 | 0.00 | 0.00 | 0.00 | 26 | 1022.6 |
| 20260904223634 | 75 | 60 | 1.0 | 4.0 | 0.00 | 0.00 | 0.00 | 29 | 1022.6 |
| 20260904222733 | 75 | 95 | 2.0 | 5.0 | 0.00 | 0.00 | 0.00 | 29 | 1022.6 |
| 20260904221813 | 75 | 108 | 2.0 | 8.0 | 0.00 | 0.00 | 0.00 | 29 | 1022.6 |
| 20260904220914 | 74 | 110 | 4.0 | 8.0 | 0.00 | 0.00 | 0.00 | 28 | 1022.6 |
| 20260904220013 | 74 | 109 | 3.0 | 8.0 | 0.00 | 0.00 | 0.00 | 30 | 1022.6 |
| 20260904215413 | 75 | 108 | 3.0 | 8.0 | 0.00 | 0.00 | 0.00 | 29 | 1022.6 |
| 20260904214533 | 76 | 114 | 4.0 | 9.0 | 0.00 | 0.00 | 0.00 | 28 | 1022.6 |
| 20260904213613 | 76 | 111 | 2.0 | 8.0 | 0.00 | 0.00 | 0.00 | 28 | 1022.6 |
| 20260904212733 | 75 | 91 | 2.0 | 8.0 | 0.00 | 0.00 | 0.00 | 28 | 1022.6 |
| 20260904211834 | 75 | 86 | 2.0 | 8.0 | 0.00 | 0.00 | 0.00 | 30 | 1022.6 |
| 20260904210912 | 75 | 86 | 2.0 | 4.0 | 0.00 | 0.00 | 0.00 | 33 | 1022.6 |
| 20260904205413 | 76 | 124 | 2.0 | 9.0 | 0.00 | 0.00 | 0.00 | 26 | 1022.6 |
| 20260904204511 | 76 | 250 | 1.0 | 4.0 | 0.00 | 0.00 | 0.00 | 29 | 1022.6 |
| 20260904203613 | 76 | 101 | 1.0 | 4.0 | 0.00 | 0.00 | 0.00 | 31 | 1022.6 |
| 20260904202733 | 75 | 109 | 1.0 | 3.0 | 0.00 | 0.00 | 0.00 | 26 | 1022.6 |
| 20260904201813 | 78 | 118 | 3.0 | 9.0 | 0.00 | 0.00 | 0.00 | 26 | 1022.6 |
| 20260904200911 | 80 | 110 | 4.0 | 11.0 | 0.00 | 0.00 | 0.00 | 25 | 1022.6 |
| 20260904200013 | 80 | 108 | 4.0 | 11.0 | 0.00 | 0.00 | 0.00 | 27 | 1022.6 |
| 20260904195413 | 81 | 107 | 3.0 | 8.0 | 0.00 | 0.00 | 0.00 | 25 | 1022.9 |
| 20260904194511 | 80 | 107 | 4.0 | 9.0 | 0.00 | 0.00 | 0.00 | 28 | 1022.9 |
| 20260904193613 | 80 | 110 | 4.0 | 10.0 | 0.00 | 0.00 | 0.00 | 29 | 1022.9 |
| 20260904192712 | 77 | 115 | 3.0 | 13.0 | 0.00 | 0.00 | 0.00 | 29 | 1022.9 |
| 20260904191812 | 76 | 286 | 2.0 | 5.0 | 0.00 | 0.00 | 0.00 | 33 | 1022.9 |
| 20260904190911 | 74 | 328 | 1.0 | 5.0 | 0.00 | 0.00 | 0.00 | 40 | 1022.9 |
| 20260904190013 | 74 | 350 | 1.0 | 4.0 | 0.00 | 0.00 | 0.00 | 34 | 1022.9 |
| 20260904185413 | 77 | 350 | 0.0 | 1.0 | 0.00 | 0.00 | 0.00 | 30 | 1023.5 |
| 20260904184511 | 78 | 17 | 1.0 | 7.0 | 0.00 | 0.00 | 0.00 | 23 | 1023.5 |
| 20260904183615 | 79 | 70 | 2.0 | 7.0 | 0.00 | 0.00 | 0.00 | 28 | 1023.5 |
| 20260904182711 | 79 | 92 | 2.0 | 6.0 | 0.00 | 0.00 | 0.00 | 27 | 1023.5 |
| 20260904181813 | 79 | 76 | 2.0 | 5.0 | 0.00 | 0.00 | 0.00 | 25 | 1023.5 |
| 20260904180911 | 80 | 126 | 2.0 | 7.0 | 0.00 | 0.00 | 0.00 | 24 | 1023.5 |
| 20260904180013 | 79 | 114 | 3.0 | 8.0 | 0.00 | 0.00 | 0.00 | 21 | 1023.5 |
| 20260904175413 | 78 | 2 | 2.0 | 8.0 | 0.00 | 0.00 | 0.00 | 24 | 1023.6 |
| 20260904174512 | 78 | 305 | 2.0 | 4.0 | 0.00 | 0.00 | 0.00 | 23 | 1023.6 |
| 20260904173612 | 78 | 329 | 2.0 | 6.0 | 0.00 | 0.00 | 0.00 | 25 | 1023.6 |
| 20260904172711 | 77 | 312 | 2.0 | 5.0 | 0.00 | 0.00 | 0.00 | 24 | 1023.6 |
| 20260904171812 | 76 | 52 | 2.0 | 9.0 | 0.00 | 0.00 | 0.00 | 25 | 1023.6 |
| 20260904170911 | 75 | 11 | 2.0 | 5.0 | 0.00 | 0.00 | 0.00 | 31 | 1023.6 |
| 20260904170018 | 75 | 87 | 3.0 | 8.0 | 0.00 | 0.00 | 0.00 | 31 | 1023.6 |
| 20260904165412 | 74 | 63 | 3.0 | 8.0 | 0.00 | 0.00 | 0.00 | 28 | 1022.4 |
| 20260904164511 | 74 | 286 | 1.0 | 4.0 | 0.00 | 0.00 | 0.00 | 30 | 1022.4 |
| 20260904163633 | 73 | 49 | 3.0 | 7.0 | 0.00 | 0.00 | 0.00 | 27 | 1022.4 |
| 20260904162711 | 73 | 52 | 3.0 | 8.0 | 0.00 | 0.00 | 0.00 | 28 | 1022.4 |
| 20260904161812 | 72 | 360 | 4.0 | 11.0 | 0.00 | 0.00 | 0.00 | 32 | 1022.4 |
| 20260904160911 | 71 | 77 | 4.0 | 11.0 | 0.00 | 0.00 | 0.00 | 31 | 1022.4 |
| 20260904160012 | 70 | 82 | 3.0 | 6.0 | 0.00 | 0.00 | 0.00 | 34 | 1022.4 |
| 20260904155411 | 68 | 95 | 3.0 | 6.0 | 0.00 | 0.00 | 0.00 | 35 | 1022.4 |
| 20260904154513 | 66 | 79 | 2.0 | 6.0 | 0.00 | 0.00 | 0.00 | 39 | 1022.4 |
| 20260904153612 | 63 | 101 | 3.0 | 7.0 | 0.00 | 0.00 | 0.00 | 45 | 1022.4 |
| 20260904152721 | 59 | 74 | 2.0 | 5.0 | 0.00 | 0.00 | 0.00 | 52 | 1022.4 |
| 20260904151812 | 55 | 53 | 1.0 | 4.0 | 0.00 | 0.00 | 0.00 | 59 | 1022.4 |
| 20260904150934 | 53 | 41 | 1.0 | 5.0 | 0.00 | 0.00 | 0.00 | 70 | 1022.4 |
| 20260904150012 | 51 | 145 | 2.0 | 6.0 | 0.00 | 0.00 | 0.00 | 70 | 1022.4 |
| 20260904145411 | 49 | 224 | 1.0 | 3.0 | 0.00 | 0.00 | 0.00 | 74 | 1022.4 |
| 20260904144511 | 48 | 0 | 0.0 | 0.0 | 0.00 | 0.00 | 0.00 | 76 | 1022.4 |
| 20260904143611 | 47 | 0 | 0.0 | 0.0 | 0.00 | 0.00 | 0.00 | 77 | 1022.4 |
| 20260904142731 | 46 | 0 | 0.0 | 0.0 | 0.00 | 0.00 | 0.00 | 78 | 1022.4 |
| 20260904141811 | 46 | 225 | 0.0 | 2.0 | 0.00 | 0.00 | 0.00 | 78 | 1022.4 |
| 20260904140910 | 45 | 232 | 1.0 | 2.0 | 0.00 | 0.00 | 0.00 | 78 | 1022.4 |
| 20260904140033 | 44 | 0 | 0.0 | 0.0 | 0.00 | 0.00 | 0.00 | 78 | 1022.4 |
| 20260904135411 | 44 | 0 | 0.0 | 0.0 | 0.00 | 0.00 | 0.00 | 77 | 1022.4 |
| 20260904134517 | 44 | 0 | 0.0 | 0.0 | 0.00 | 0.00 | 0.00 | 77 | 1022.4 |
| 20260904133611 | 44 | 0 | 0.0 | 0.0 | 0.00 | 0.00 | 0.00 | 76 | 1022.4 |
| 20260904132710 | 44 | 0 | 0.0 | 0.0 | 0.00 | 0.00 | 0.00 | 75 | 1022.4 |
| 20260904131811 | 44 | 0 | 0.0 | 0.0 | 0.00 | 0.00 | 0.00 | 76 | 1022.4 |
| 20260904130910 | 44 | 0 | 0.0 | 0.0 | 0.00 | 0.00 | 0.00 | 76 | 1022.4 |
| 20260904130018 | 43 | 0 | 0.0 | 0.0 | 0.00 | 0.00 | 0.00 | 75 | 1022.4 |
| 20260904125411 | 43 | 0 | 0.0 | 0.0 | 0.00 | 0.00 | 0.00 | 74 | 1022.4 |
| 20260904124510 | 43 | 0 | 0.0 | 0.0 | 0.00 | 0.00 | 0.00 | 74 | 1022.4 |
| 20260904123611 | 44 | 0 | 0.0 | 0.0 | 0.00 | 0.00 | 0.00 | 74 | 1022.4 |
| 20260904122710 | 44 | 0 | 0.0 | 0.0 | 0.00 | 0.00 | 0.00 | 73 | 1022.4 |
| 20260904121811 | 44 | 0 | 0.0 | 0.0 | 0.00 | 0.00 | 0.00 | 73 | 1022.4 |
| 20260904120910 | 44 | 0 | 0.0 | 0.0 | 0.00 | 0.00 | 0.00 | 73 | 1022.4 |
| 20260904120021 | 44 | 0 | 0.0 | 0.0 | 0.00 | 0.00 | 0.00 | 74 | 1022.4 |
| 20260904115411 | 44 | 0 | 0.0 | 0.0 | 0.00 | 0.00 | 0.00 | 74 | 1022.4 |
| 20260904114510 | 44 | 233 | 0.0 | 1.0 | 0.00 | 0.00 | 0.00 | 74 | 1022.4 |
| 20260904113611 | 43 | 233 | 0.0 | 2.0 | 0.00 | 0.00 | 0.00 | 73 | 1022.4 |
| 20260904112710 | 43 | 0 | 0.0 | 0.0 | 0.00 | 0.00 | 0.00 | 73 | 1022.4 |
| 20260904111811 | 43 | 0 | 0.0 | 0.0 | 0.00 | 0.00 | 0.00 | 74 | 1022.4 |
| 20260904110910 | 44 | 0 | 0.0 | 0.0 | 0.00 | 0.00 | 0.00 | 72 | 1022.4 |
| 20260904110011 | 44 | 0 | 0.0 | 0.0 | 0.00 | 0.00 | 0.00 | 72 | 1022.4 |
| 20260904105432 | 44 | 0 | 0.0 | 0.0 | 0.00 | 0.00 | 0.00 | 71 | 1022.4 |
| 20260904104530 | 44 | 0 | 0.0 | 0.0 | 0.00 | 0.00 | 0.00 | 70 | 1022.4 |
| 20260904103632 | 45 | 0 | 0.0 | 0.0 | 0.00 | 0.00 | 0.00 | 71 | 1022.4 |
| 20260904102710 | 45 | 0 | 0.0 | 0.0 | 0.00 | 0.00 | 0.00 | 72 | 1022.4 |
| 20260904101831 | 45 | 0 | 0.0 | 0.0 | 0.00 | 0.00 | 0.00 | 69 | 1022.4 |
| 20260904100909 | 45 | 0 | 0.0 | 0.0 | 0.00 | 0.00 | 0.00 | 73 | 1022.4 |
| 20260904095411 | 45 | 0 | 0.0 | 0.0 | 0.00 | 0.00 | 0.00 | 72 | 1022.3 |
| 20260904094510 | 45 | 0 | 0.0 | 0.0 | 0.00 | 0.00 | 0.00 | 72 | 1022.3 |
| 20260904093611 | 45 | 0 | 0.0 | 0.0 | 0.00 | 0.00 | 0.00 | 74 | 1022.3 |
| 20260904092730 | 46 | 233 | 0.0 | 1.0 | 0.00 | 0.00 | 0.00 | 75 | 1022.3 |
| 20260904091811 | 46 | 233 | 0.0 | 1.0 | 0.00 | 0.00 | 0.00 | 73 | 1022.3 |
| 20260904090927 | 46 | 0 | 0.0 | 0.0 | 0.00 | 0.00 | 0.00 | 72 | 1022.3 |
| 20260904090013 | 46 | 0 | 0.0 | 0.0 | 0.00 | 0.00 | 0.00 | 72 | 1022.3 |
| 20260904085410 | 46 | 0 | 0.0 | 0.0 | 0.00 | 0.00 | 0.00 | 72 | 1022.3 |
| 20260904084530 | 46 | 0 | 0.0 | 0.0 | 0.00 | 0.00 | 0.00 | 74 | 1022.3 |
| 20260904083610 | 46 | 0 | 0.0 | 0.0 | 0.00 | 0.00 | 0.00 | 71 | 1022.3 |
| 20260904082709 | 47 | 0 | 0.0 | 0.0 | 0.00 | 0.00 | 0.00 | 71 | 1022.3 |